Regional Weather Roundup
Issued by NWS Newport/Morehead, NC

Current Version | Previous Version | Graphics & Text | Print | Product List | Glossary On
Versions: 1 2 3 4 5 6 7 8 9 10 11 12 13 14 15 16 17 18 19 20 21 22 23 24 25 26 27 28 29 30 31 32 33 34 35 36 37 38 39 40 41 42 43 44 45 46 47 48 49 50
000 ASUS42 KMHX 241325 RWRMHX WEATHER ROUNDUP FOR EASTERN NORTH CAROLINA NATIONAL WEATHER SERVICE NEWPORT/MOREHEAD CITY NC 900 AM EDT FRI MAR 24 2017 NOTE: "FAIR" INDICATES FEW OR NO CLOUDS BELOW 12,000 FEET WITH NO SIGNIFICANT WEATHER AND/OR OBSTRUCTIONS TO VISIBILITY NCZ015>017-031-032-045>047-102-103-241400- NORTH COAST CITY SKY/WX TMP DP RH WIND PRES REMARKS EDENTON SUNNY 48 32 53 CALM 30.54F ELIZABETH CITY SUNNY 46 36 68 SE8 30.54F KITTY HAWK NOT AVBL MANTEO SUNNY 49 38 67 E8 30.55S $$ NCZ045>047-081-094-103-104-241400- CENTRAL COAST CITY SKY/WX TMP DP RH WIND PRES REMARKS FRISCO SUNNY 57 43 59 SE5 30.54S $$ NCZ095-097-098-100-101-241400- SOUTHERN COAST CITY SKY/WX TMP DP RH WIND PRES REMARKS BEAUFORT SUNNY 52 45 77 E7 30.53S CEDAR ISLAND NOT AVBL JACKSONVILLE SUNNY 45 38 76 E5 30.53F PINEY ISLAND SUNNY N/A N/A N/A NE6 30.53S WILMINGTON SUNNY 45 39 79 NE6 30.53F $$ NCZ011>013-027>030-043-044-078>080-089-090>093-098-241400- COASTAL PLAIN CITY SKY/WX TMP DP RH WIND PRES REMARKS AHOSKIE N/A 39 32 75 SE5 30.53S CLINTON SUNNY 46 37 71 CALM 30.53F ELIZABETHTOWN SUNNY 44 37 76 E3 30.52F GOLDSBORO SUNNY 44 35 72 CALM 30.51F GREENVILLE SUNNY 45 32 61 CALM 30.52F HAVELOCK SUNNY 48 42 80 E3 30.54F KENANSVILLE SUNNY 45 32 61 CALM 30.53F KINSTON SUNNY 45 32 61 CALM 30.54F NEW BERN SUNNY 46 39 76 NE5 30.55F RICHLANDS SUNNY 45 37 73 NE5 30.54S ROCKY MOUNT SUNNY 40 33 76 S3 30.52F WASHINGTON SUNNY 44 31 60 CALM 30.54F WHITEVILLE SUNNY 44 36 73 E5 30.52S $$ AMZ130-135-150-152-154-156-158-170-250-252-270-ANZ085-086-088-633-658-670-241400- MARINE OBSERVATIONS STATION/POSITION TIME TEMP WIND PRES WAVE SWELL AIR SEA DIR/SP/G HT/PER HT/PER (UTC) (F) (DEG/KT/KT) (MB) (FT/S) (FT/S) CHESAPEAKE LIGHT NOT AVBL 64 E VA BEACH 1250 49 48 140/ 6/ 8 1034.2 3/ 9 3/ 9 DUCK 1300 47 47 120/ 4/ 6 1033.8 2 E DUCK 1300 47 N/A 3/ 9 2/11 OREGON INLET 1300 48 49 60/ 5/ 7 1034.2 13E OREGON INLT NOT AVBL HATTERAS CG 1300 54 51 100/ 4/ 6 1033.5 DIAMOND BUOY 1250 59 75 160/ 14/ 17 1034.1 6/ 9 5/ 9 CAPE LOOKOUT 1300 52 40/ 6/ 7 1033.5 BEAUFORT LAB 1300 51 50 30/ 4/ 5 1032.9 30 SE NEW RVR IN 1308 63 160/ 8/ 12 1033.6 30 SE NEW RVR IN 1243 68 N/A 3/10 2/11 27 SE WRIGHTSVLE 1308 63 62 140/ 6/ 10 1032.6 5 SE WRIGHTSVLE 1308 52 56 40/ 8/ 17 1033.5 225 S CAPE HAT 1250 63 73 70/ 17/ 21 1033.0 6/10 5/10 41 SE CHARLESTON 1250 67 71 90/ 10/ 14 1031.3 5/ 7 3/ 7 $$

USA.gov is the U.S. government's official web portal to all federal, state and local government web resources and services.